Hourly Weather Roundup
Issued by NWS Central Illinois

Home | Current Version | Previous Version | Text Only | Print | Product List | Glossary On
Versions: 1 2 3 4 5 6 7 8 9 10 11 12 13 14 15 16 17 18 19 20 21 22 23 24 25 26 27 28 29 30 31 32 33 34 35 36 37 38 39 40 41 42 43 44 45 46 47 48 49 50
000
NZUS43 KILX 201410
HWRILX

AREA WEATHER ROUNDUP
NATIONAL WEATHER SERVICE, LINCOLN IL
900 AM CDT MON APR 20 2015


CITY           SKY/WX    TMP DP  RH WIND       PRES   REMARKS
BLOOMINGTON    CLOUDY    47  44  89 W17G25    29.48R
CHAMPAIGN      CLOUDY    49  44  83 W23G31    29.48R
DECATUR        CLOUDY    50  42  74 W17G24    29.52R
EFFINGHAM      CLOUDY    51  41  69 W12G22    29.59R
FLORA          CLOUDY    52  43  72 W14       29.60R
GALESBURG      CLOUDY    45  38  78 W18G30    29.51R
JACKSONVILLE   CLOUDY    50  40  70 W29G39    29.58R
LACON          CLOUDY    46  39  77 W18G29    29.46R
LAWRENCEVILLE  CLOUDY    52  45  77 W14G26    29.58R
LITCHFIELD     CLOUDY    49  40  69 W20G25    29.58S
$$


CITY           SKY/WX    TMP DP  RH WIND       PRES   REMARKS
LINCOLN        CLOUDY    49  42  77 W10G21    29.51R
MACOMB         CLOUDY    46  39  77 W30G37    29.57R
MATTOON        CLOUDY    50  43  77 W16G29    29.53R
MT CARMEL AP   CLOUDY    54  45  71 W22G28    29.59R
OLNEY-NOBLE AP CLOUDY    52  43  71 W15G21    29.59R
PARIS          CLOUDY    49  46  88 W20       29.52R
PEORIA         CLOUDY    49  39  68 NW12G30   29.49R
PONTIAC        CLOUDY    49  44  83 W26G33    29.43R
RANTOUL        CLOUDY    50  45  83 W20G29    29.46R
ROBINSON       CLOUDY    50  44  80 W21G30    29.57R
SPRINGFIELD    CLOUDY    50  41  71 W20G28    29.55R
TAYLORVILLE    CLOUDY    46  43  87 W17G23    29.55S
$$

...REGIONAL REPORTS...


CITY           SKY/WX    TMP DP  RH WIND       PRES   REMARKS
CHICAGO O`HARE CLOUDY    49  46  90 W21G29    29.27R
KANKAKEE       CLOUDY    48  44  85 W22G31    29.39R
MOLINE         MOSUNNY   47  36  65 NW23G35   29.47S
MOUNT VERNON   CLOUDY    54  41  62 W6        29.62S
PITTSFIELD     PTSUNNY   50  39  64 W18G28    29.62R
QUINCY         CLOUDY    48  37  65 NW26G36   29.62R
ROCKFORD       CLOUDY    45  40  82 W20       29.35R
$$


CITY           SKY/WX    TMP DP  RH WIND       PRES   REMARKS
BURLINGTON     MOSUNNY   47  37  68 NW18G29   29.56R
CEDAR RAPIDS   PTSUNNY   43  36  76 NW26G41   29.52R WCI  33
DES MOINES     CLOUDY    46  36  68 NW22G29   29.66R
KIRKSVILLE     LGT RAIN  46  37  71 NW20G30   29.69R
OTTUMWA        CLOUDY    45  36  70 NW22G32   29.62R
ST LOUIS       PTSUNNY   53  39  59 NW17G35   29.65R
$$


CITY           SKY/WX    TMP DP  RH WIND       PRES   REMARKS
TERRE HAUTE    CLOUDY    50  45  83 W17G26    29.52R
EVANSVILLE     CLOUDY    56  46  69 W15G21    29.60R
INDIANAPOLIS   DRIZZLE   51  46  83 W28       29.45R
LAFAYETTE      LGT RAIN  49  46  90 W10G25    29.43R FOG
MADISON        LGT RAIN  40  36  86 NW17G29   29.32R WCI  31
MILWAUKEE      CLOUDY    49  45  86 W12       29.21R
$$




USA.gov is the U.S. government's official web portal to all federal, state and local government web resources and services.